Tracking 28052 objects as of 24-Sep-2023
HD Live streaming from Space Station
objects crossing your sky now

STARLINK-30294

Track STARLINK-30294 now!
10-day predictions
STARLINK-30294 is classified as:


NORAD ID: 57651
Int'l Code: 2023-122V
Perigee: 491.1 km
Apogee: 495.2 km
Inclination: 43.0 °
Period: 94.3 minutes
Semi major axis: 6864 km
RCS: Unknown
Launch date: August 17, 2023
Source: United States (US)
Launch site: AIR FORCE EASTERN TEST RANGE (AFETR)
Your satellite tracking list
Your tracking list is empty




NASA's NSSDC Master Catalog

Two Line Element Set (TLE):
1 57651U 23122V   23267.16668981  .00029969  00000-0  11273-2 0  9990
2 57651  42.9983 290.2748 0003039 225.5933 207.5599 15.26593370  7125
Source of the keplerian elements: AFSPC